Hourly Weather Rumok

Today, 10 April, Saturday

Time Temperature Precipitation Wind Pressure Humidity
00:00 +1°C° 0 mm 5 mps 749 mmHg 68%
01:00 +1°C° 0 mm 5 mps 749 mmHg 69%
02:00 +1°C° 0 mm 5 mps 749 mmHg 71%
03:00 +1°C° 0 mm 5 mps 749 mmHg 72%
04:00 0°C° 0 mm 5 mps 748 mmHg 74%
05:00 0°C° 0 mm 5 mps 748 mmHg 75%
06:00 +1°C° 0 mm 5 mps 748 mmHg 73%
07:00 +2°C° 0 mm 5 mps 748 mmHg 70%
08:00 +2°C° 0 mm 6 mps 749 mmHg 68%
09:00 +4°C° 0 mm 6 mps 749 mmHg 62%
10:00 +6°C° 0 mm 7 mps 748 mmHg 56%
11:00 +8°C° 0 mm 7 mps 748 mmHg 51%
12:00 +10°C° 0 mm 7 mps 748 mmHg 49%
13:00 +11°C° 0 mm 7 mps 748 mmHg 47%
14:00 +12°C° 0 mm 7 mps 748 mmHg 45%
15:00 +13°C° 0 mm 6 mps 748 mmHg 47%
16:00 +13°C° 0 mm 6 mps 748 mmHg 49%
17:00 +13°C° 0 mm 5 mps 748 mmHg 51%
18:00 +11°C° 0 mm 4 mps 748 mmHg 57%
19:00 +10°C° 0 mm 4 mps 749 mmHg 64%
20:00 +8°C° 0 mm 3 mps 749 mmHg 70%
21:00 +7°C° 0 mm 4 mps 749 mmHg 71%
22:00 +6°C° 0 mm 4 mps 749 mmHg 71%
23:00 +6°C° 0 mm 5 mps 749 mmHg 72%

Tomorrow, 11 April, Sunday

Time Temperature Precipitation Wind Pressure Humidity
00:00 +6°C° 0 mm 4 mps 750 mmHg 74%
01:00 +5°C° 0 mm 4 mps 750 mmHg 76%
02:00 +5°C° 0 mm 4 mps 750 mmHg 78%
03:00 +4°C° 0 mm 4 mps 750 mmHg 80%
04:00 +4°C° 0 mm 4 mps 751 mmHg 82%
05:00 +4°C° 0 mm 3 mps 751 mmHg 83%
06:00 +5°C° 0 mm 4 mps 751 mmHg 79%
07:00 +6°C° 0 mm 4 mps 752 mmHg 75%
08:00 +7°C° 0 mm 4 mps 752 mmHg 71%
09:00 +10°C° 0 mm 4 mps 752 mmHg 65%
10:00 +11°C° 0 mm 4 mps 752 mmHg 60%
11:00 +13°C° 0 mm 5 mps 753 mmHg 55%
12:00 +14°C° 0 mm 5 mps 753 mmHg 51%
13:00 +15°C° 0 mm 5 mps 753 mmHg 48%
14:00 +16°C° 0 mm 5 mps 753 mmHg 45%
15:00 +17°C° 0 mm 4 mps 753 mmHg 46%
16:00 +15°C° 0 mm 4 mps 753 mmHg 47%
17:00 +16°C° 0 mm 3 mps 753 mmHg 48%
18:00 +13°C° 0 mm 3 mps 753 mmHg 53%
19:00 +11°C° 0 mm 3 mps 753 mmHg 59%
20:00 +10°C° 0 mm 3 mps 753 mmHg 64%
21:00 +9°C° 0 mm 3 mps 753 mmHg 65%
22:00 +8°C° 0 mm 3 mps 754 mmHg 66%
23:00 +7°C° 0 mm 3 mps 754 mmHg 67%

Day after tomorrow, 12 April, Monday

Time Temperature Precipitation Wind Pressure Humidity
00:00 +7°C° 0 mm 3 mps 754 mmHg 69%
01:00 +5°C° 0 mm 3 mps 754 mmHg 70%
02:00 +4°C° 0 mm 3 mps 754 mmHg 72%
03:00 +4°C° 0 mm 3 mps 754 mmHg 73%
04:00 +4°C° 0 mm 3 mps 753 mmHg 73%
05:00 +3°C° 0 mm 3 mps 753 mmHg 74%
06:00 +4°C° 0 mm 3 mps 753 mmHg 69%
07:00 +6°C° 0 mm 4 mps 753 mmHg 64%
08:00 +7°C° 0 mm 5 mps 753 mmHg 59%
09:00 +9°C° 0 mm 5 mps 753 mmHg 54%
10:00 +10°C° 0 mm 5 mps 752 mmHg 48%
11:00 +13°C° 0 mm 6 mps 752 mmHg 43%
12:00 +14°C° 0 mm 5 mps 752 mmHg 41%
13:00 +14°C° 0 mm 5 mps 751 mmHg 38%
14:00 +15°C° 0 mm 5 mps 751 mmHg 36%
15:00 +15°C° 0 mm 4 mps 750 mmHg 39%
16:00 +14°C° 0 mm 4 mps 750 mmHg 41%
17:00 +14°C° 0 mm 3 mps 750 mmHg 44%
18:00 +13°C° 0 mm 3 mps 750 mmHg 49%
19:00 +11°C° 0 mm 3 mps 750 mmHg 54%
20:00 +9°C° 0 mm 3 mps 750 mmHg 59%
21:00 +9°C° 0 mm 3 mps 750 mmHg 61%
22:00 +8°C° 0 mm 3 mps 749 mmHg 64%
23:00 +7°C° 0 mm 3 mps 749 mmHg 67%

13 April, Tuesday

Time Temperature Precipitation Wind Pressure Humidity
00:00 +7°C° 0 mm 3 mps 749 mmHg 70%
01:00 +5°C° 0 mm 3 mps 749 mmHg 73%
02:00 +5°C° 0 mm 2 mps 749 mmHg 77%
03:00 +5°C° 0 mm 2 mps 749 mmHg 79%
04:00 +5°C° 0 mm 2 mps 749 mmHg 81%
05:00 +5°C° 0 mm 2 mps 749 mmHg 83%
06:00 +6°C° 0 mm 2 mps 749 mmHg 77%
07:00 +8°C° 0 mm 2 mps 749 mmHg 72%
08:00 +9°C° 0 mm 3 mps 749 mmHg 67%
09:00 +12°C° 0 mm 2 mps 748 mmHg 60%
10:00 +14°C° 0 mm 2 mps 748 mmHg 54%
11:00 +16°C° 0 mm 2 mps 748 mmHg 47%
12:00 +16°C° 0 mm 2 mps 748 mmHg 44%
13:00 +17°C° 0 mm 2 mps 748 mmHg 42%
14:00 +18°C° 0 mm 2 mps 747 mmHg 39%
15:00 +19°C° 0 mm 1 mps 747 mmHg 40%
16:00 +19°C° 0 mm 1 mps 747 mmHg 41%
17:00 +19°C° 0 mm 1 mps 746 mmHg 42%
18:00 +16°C° 0 mm 1 mps 746 mmHg 49%
19:00 +14°C° 0 mm 1 mps 746 mmHg 56%
20:00 +13°C° 0 mm 1 mps 746 mmHg 63%
21:00 +12°C° 0 mm 2 mps 746 mmHg 70%
22:00 +12°C° 0 mm 2 mps 746 mmHg 77%
23:00 +10°C° 0 mm 2 mps 746 mmHg 84%

14 April, Wednesday

Time Temperature Precipitation Wind Pressure Humidity
00:00 +10°C° 0 mm 2 mps 746 mmHg 87%
01:00 +10°C° 0 mm 2 mps 745 mmHg 90%
02:00 +9°C° 0 mm 2 mps 745 mmHg 93%
03:00 +9°C° 0 mm 2 mps 745 mmHg 94%
04:00 +9°C° 0 mm 2 mps 745 mmHg 95%
05:00 +8°C° 0 mm 2 mps 744 mmHg 96%
06:00 +9°C° 0.1 mm 2 mps 744 mmHg 94%
07:00 +10°C° 0.1 mm 3 mps 744 mmHg 92%
08:00 +10°C° 0.1 mm 3 mps 744 mmHg 90%
09:00 +10°C° 0.1 mm 3 mps 744 mmHg 89%
10:00 +10°C° 0.1 mm 3 mps 743 mmHg 89%
11:00 +11°C° 0.1 mm 3 mps 743 mmHg 88%
12:00 +11°C° 0.3 mm 3 mps 743 mmHg 88%
13:00 +11°C° 0.3 mm 3 mps 743 mmHg 89%
14:00 +10°C° 0.3 mm 3 mps 743 mmHg 89%
15:00 +10°C° 0.3 mm 3 mps 743 mmHg 91%
16:00 +10°C° 0.3 mm 3 mps 742 mmHg 93%
17:00 +10°C° 0.3 mm 3 mps 742 mmHg 95%
18:00 +9°C° 0.2 mm 3 mps 742 mmHg 95%
19:00 +9°C° 0.2 mm 3 mps 742 mmHg 95%
20:00 +9°C° 0.2 mm 2 mps 742 mmHg 96%
21:00 +9°C° 0.2 mm 2 mps 742 mmHg 95%
22:00 +8°C° 0.2 mm 2 mps 742 mmHg 95%
23:00 +8°C° 0.2 mm 2 mps 742 mmHg 95%

15 April, Thursday

Time Temperature Precipitation Wind Pressure Humidity
00:00 +8°C° 0.2 mm 2 mps 742 mmHg 95%
01:00 +8°C° 0.2 mm 2 mps 742 mmHg 95%
02:00 +8°C° 0.2 mm 2 mps 742 mmHg 95%
03:00 +8°C° 0 mm 2 mps 742 mmHg 94%
04:00 +7°C° 0 mm 2 mps 742 mmHg 94%
05:00 +7°C° 0 mm 2 mps 742 mmHg 93%
06:00 +8°C° 0 mm 2 mps 742 mmHg 91%
07:00 +8°C° 0 mm 2 mps 742 mmHg 89%
08:00 +8°C° 0 mm 2 mps 742 mmHg 87%
09:00 +9°C° 0.1 mm 2 mps 742 mmHg 87%
10:00 +9°C° 0.1 mm 2 mps 742 mmHg 88%
11:00 +9°C° 0.1 mm 2 mps 742 mmHg 88%
12:00 +9°C° 0 mm 2 mps 742 mmHg 87%
13:00 +9°C° 0 mm 3 mps 742 mmHg 87%
14:00 +9°C° 0 mm 3 mps 742 mmHg 86%
15:00 +10°C° 0.1 mm 3 mps 742 mmHg 85%
16:00 +10°C° 0.1 mm 3 mps 742 mmHg 84%
17:00 +10°C° 0.1 mm 3 mps 742 mmHg 83%
18:00 +10°C° 0.4 mm 3 mps 741 mmHg 86%
19:00 +9°C° 0.4 mm 3 mps 741 mmHg 90%
20:00 +9°C° 0.4 mm 3 mps 741 mmHg 94%
21:00 +8°C° 1.1 mm 4 mps 741 mmHg 94%
22:00 +8°C° 1.1 mm 4 mps 740 mmHg 95%
23:00 +7°C° 1.1 mm 5 mps 740 mmHg 95%
Show more